Location: Burzi?i
(45.0869°N, 16.0577°E)
Time: 11:51:17
(UTC+00:00)

SJ-11-01 - Pass Details

Date: 29 October 2020
Orbit: 685 x 700 km, 98.0° (Epoch: 28 November)

Event Time Altitude Azimuth Distance (km) Brightness Sun altitude
Exits shadow 17:35:48 23° 146° (SE) 1,440 5.6 -19.6°
Maximum altitude 17:38:35 60° 73° (ENE) 785 4.2 -20.1°
Drops below altitude 10° 17:43:13 10° 354° (N) 2,147 6.9 -20.9°
Sets 17:45:29 0° 351° (N) 3,070 7.8 -21.3°
